Location: Huntsville
(41.2590°N, 111.7678°W)
Time: 23:17:36
(UTC+00:00)

SR - Pass Details

Date: 23 June 2021
Orbit: 577 x 878 km, 66.7° (Epoch: 29 July)

Event Time Altitude Azimuth Distance (km) Brightness Sun altitude
Rises 07:47:56 0° 331° (NNW) 3,272 ? -25.2°
Reaches altitude 10° 07:50:28 10° 334° (NNW) 2,292 ? -25.1°
Maximum altitude 07:55:40 70° 58° (ENE) 755 ? -25.0°
Enters shadow 07:56:19 61° 106° (ESE) 796 ? -25.0°
